DW6102 Weather Reports


Display with metric or nautical units.
time (UTC)temp
F
wind
direction
speed
MPH
gust
MPH
rain 1hr
in
rain 24hr
in
rain mn
in
humidity
%
barometer
mb
20260502123001 60 122 0.0 0.0 0.00 0.00 0.00 51 1007.3
20260502121559 60 122 0.0 0.0 0.00 0.00 0.00 51 1007.1
20260502114536 61 122 0.0 0.0 0.00 0.00 0.00 49 1006.9
20260502113022 62 122 0.0 0.0 0.00 0.00 0.00 47 1006.8
20260502111520 62 122 0.0 0.0 0.00 0.00 0.00 46 1006.8
20260502110019 63 122 0.0 0.0 0.00 0.00 0.00 45 1006.7
20260502104514 63 122 0.0 0.0 0.00 0.00 0.00 43 1006.7
20260502103011 64 123 0.0 0.0 0.00 0.00 0.00 42 1006.5
20260502101512 64 123 0.0 0.0 0.00 0.00 0.00 43 1006.5
20260502071517 67 295 0.0 0.0 0.00 0.00 0.00 34 1005.6
20260502070100 67 295 0.0 0.0 0.00 0.00 0.00 31 1005.4
20260502064603 68 295 0.0 0.0 0.00 0.00 0.00 32 1005.5
20260502063048 69 295 0.0 0.0 0.00 0.00 0.00 31 1005.5
20260502061545 70 295 0.0 0.0 0.00 0.00 0.00 29 1005.5
20260502060045 71 295 0.0 1.0 0.00 0.00 0.00 29 1005.3
20260502054545 70 295 0.0 1.0 0.00 0.00 0.00 31 1005.1
20260502053044 71 295 0.0 0.0 0.00 0.00 0.00 33 1004.9
20260502051544 71 295 0.0 1.0 0.00 0.00 0.00 35 1004.9
20260502050042 71 295 0.0 0.0 0.00 0.00 0.00 37 1004.8
20260502044542 72 295 0.0 0.0 0.00 0.00 0.00 38 1004.8
20260502043024 73 295 0.0 0.0 0.00 0.00 0.00 32 1004.7
20260502041524 73 295 0.0 0.0 0.00 0.00 0.00 33 1004.6
20260502040010 74 295 0.0 0.0 0.00 0.00 0.00 31 1004.4
20260502034507 75 295 0.0 0.0 0.00 0.00 0.00 27 1004.2
20260502033049 76 295 0.0 0.0 0.00 0.00 0.00 26 1004.0
20260502031548 77 295 0.0 0.0 0.00 0.00 0.00 23 1003.8
20260502030030 78 295 0.0 0.0 0.00 0.00 0.00 21 1003.5
20260502024529 79 295 0.0 0.0 0.00 0.00 0.00 21 1003.4
20260502023012 81 295 0.0 0.0 0.00 0.00 0.00 19 1003.3
20260502021515 84 297 0.0 1.0 0.00 0.00 0.00 18 1003.2
20260502020054 86 296 0.0 1.0 0.00 0.00 0.00 17 1003.0
20260502014553 88 294 1.0 2.0 0.00 0.00 0.00 15 1003.0
20260502013044 88 297 0.0 3.0 0.00 0.00 0.00 16 1003.0
20260502011535 89 305 0.0 4.0 0.00 0.00 0.00 15 1003.0
20260502010116 89 305 1.0 4.0 0.00 0.00 0.00 17 1003.0
20260502004531 89 293 1.0 4.0 0.00 0.00 0.00 16 1003.0
20260502003057 90 260 1.0 7.0 0.00 0.00 0.00 16 1002.9
20260502001558 91 312 1.0 4.0 0.00 0.00 0.00 17 1002.9
20260502000051 90 246 2.0 5.0 0.00 0.00 0.00 17 1003.0
20260501234538 91 297 0.0 3.0 0.00 0.00 0.00 18 1002.9
20260501233020 90 51 0.0 3.0 0.00 0.00 0.00 20 1003.1
20260501231529 90 266 0.0 4.0 0.00 0.00 0.00 19 1003.3
20260501230100 89 313 1.0 4.0 0.00 0.00 0.00 21 1003.2
20260501224600 89 308 2.0 4.0 0.00 0.00 0.00 20 1003.4
20260501223040 91 285 0.0 2.0 0.00 0.00 0.00 20 1003.5
20260501221539 89 271 0.0 4.0 0.00 0.00 0.00 20 1003.7
20260501220020 89 302 2.0 5.0 0.00 0.00 0.00 21 1003.9
20260501214521 90 252 0.0 3.0 0.00 0.00 0.00 21 1004.1
20260501213001 89 39 1.0 3.0 0.00 0.00 0.00 20 1004.5
20260501211600 89 270 2.0 4.0 0.00 0.00 0.00 20 1004.6
20260501210042 88 225 0.0 4.0 0.00 0.00 0.00 22 1004.9
20260501204546 90 352 0.0 4.0 0.00 0.00 0.00 18 1005.0
20260501203022 89 125 1.0 3.0 0.00 0.00 0.00 20 1005.2
20260501201520 88 243 0.0 2.0 0.00 0.00 0.00 22 1005.4
20260501200003 86 297 2.0 7.0 0.00 0.00 0.00 22 1005.5
20260501194601 88 239 0.0 4.0 0.00 0.00 0.00 21 1005.6
20260501193041 86 112 0.0 2.0 0.00 0.00 0.00 23 1005.9
20260501191541 86 229 0.0 3.0 0.00 0.00 0.00 23 1006.1
20260501190023 86 98 0.0 4.0 0.00 0.00 0.00 24 1006.3
20260501184519 85 249 1.0 3.0 0.00 0.00 0.00 26 1006.6
20260501183112 84 220 0.0 4.0 0.00 0.00 0.00 26 1006.8
20260501181558 83 98 2.0 3.0 0.00 0.00 0.00 27 1007.1
20260501180041 83 143 1.0 3.0 0.00 0.00 0.00 27 1007.2
20260501174552 82 299 1.0 3.0 0.00 0.00 0.00 30 1007.3
20260501173019 81 279 0.0 4.0 0.00 0.00 0.00 29 1007.5
20260501171519 81 336 0.0 3.0 0.00 0.00 0.00 32 1007.5
20260501170116 81 154 0.0 1.0 0.00 0.00 0.00 32 1007.6
20260501164607 79 335 1.0 3.0 0.00 0.00 0.00 35 1007.6
20260501163103 78 321 0.0 2.0 0.00 0.00 0.00 36 1007.6
20260501161534 77 176 0.0 1.0 0.00 0.00 0.00 36 1007.6
20260501160036 77 95 0.0 1.0 0.00 0.00 0.00 36 1007.5
20260501154509 76 115 0.0 1.0 0.00 0.00 0.00 38 1007.5
20260501153013 74 288 1.0 3.0 0.00 0.00 0.00 41 1007.3
20260501151607 74 236 0.0 3.0 0.00 0.00 0.00 39 1007.2
20260501150056 74 143 1.0 3.0 0.00 0.00 0.00 39 1007.0
20260501144526 72 121 0.0 2.0 0.00 0.00 0.00 43 1007.0